Minot, ND

3:13 PM CDT on June 26, 2017 (GMT -0500)
Minot International

Weather History for KMOT - October, 2011

Change the Weather History Date:

Tuesday, October 11, 2011

  Actual Average Record
Temperature  
Mean Temperature 56 °F 47 °F  
Max Temperature 67 °F 58 °F 86 °F (1934)
Min Temperature 45 °F 36 °F 12 °F (1919)
Degree Days  
Heating Degree Days 9 18  
Month to date heating degree days 72 177  
Since 1 July heating degree days 244 497  
Cooling Degree Days 0 0  
Month to date cooling degree days 9 0  
Year to date cooling degree days 508 444  
Growing Degree Days 6 (Base 50)    
Moisture  
Dew Point 44 °F    
Average Humidity 67    
Maximum Humidity 89    
Minimum Humidity 44    
Precipitation  
Precipitation T in 0.05 in 1.04 in (2013)
Month to date precipitation 0.64 0.49  
Year to date precipitation 21.72 15.39  
Sea Level Pressure  
Sea Level Pressure 29.63 in    
Wind  
Wind Speed 7 mph (SSW)    
Max Wind Speed 14 mph    
Max Gust Speed 16 mph    
Visibility 10 miles    
Events      
T = Trace of Precipitation, MM = Missing Value Source: NWS Daily Summary

Daily Weather History Graph

Daily Weather History Graph

Search for Another Location

Airport or City:

Trip Planner

Search our weather history database for the weather conditions in past years. The results will help you decide how hot, cold, wet, or windy it might be!

Date:

Astronomy

Oct. 11, 2011 Rise Set
Actual Time 7:58 AM CDT 7:04 PM CDT
Civil Twilight 7:27 AM CDT 7:35 PM CDT
Nautical Twilight 6:51 AM CDT 8:11 PM CDT
Astronomical Twilight 6:14 AM CDT 8:47 PM CDT
Moon 6:32 PM CDT (10/11) 7:41 AM CDT (10/11)
Length of Visible Light 12h 08m
Length of Day
11h 05m
Full, 100% of the Moon is Illuminated
Oct 11
Full
Oct 11
Full
Oct 19
Last Quarter
Oct 26
New
Nov 2
First Quarter

Hourly Weather History & Observations

Time (CDT) Temp. Windchill Dew Point Humidity Pressure Visibility Wind Dir Wind Speed Gust Speed Precip Events Conditions
12:54 AM 48.9 °F - 44.1 °F 83% 29.65 in 10.0 mi South 6.9 mph - N/A   Clear
1:54 AM 48.9 °F - 44.1 °F 83% 29.65 in 10.0 mi SW 3.5 mph - N/A   Clear
2:54 AM 48.9 °F - 43.0 °F 80% 29.65 in 10.0 mi SW 5.8 mph - N/A   Clear
3:54 AM 48.9 °F - 43.0 °F 80% 29.65 in 10.0 mi SW 8.1 mph - N/A   Clear
4:54 AM 46.9 °F - 42.1 °F 83% 29.65 in 10.0 mi SW 9.2 mph - N/A   Clear
5:54 AM 46.9 °F - 42.1 °F 83% 29.66 in 10.0 mi SSW 5.8 mph - N/A   Clear
6:54 AM 45.0 °F 41.2 °F 41.0 °F 86% 29.66 in 10.0 mi SSW 6.9 mph - N/A   Clear
7:54 AM 46.4 °F 41.9 °F 41.0 °F 81% 29.64 in 10.0 mi South 9.2 mph - N/A   Clear
10:54 AM 60.1 °F - 45.0 °F 57% 29.63 in 10.0 mi South 8.1 mph - N/A   Clear
11:54 AM 64.0 °F - 44.1 °F 48% 29.62 in 10.0 mi SSW 6.9 mph - N/A   Clear
12:54 PM 66.0 °F - 44.1 °F 45% 29.62 in 10.0 mi South 9.2 mph - N/A   Clear
1:54 PM 66.0 °F - 45.0 °F 47% 29.62 in 10.0 mi South 10.4 mph - N/A   Partly Cloudy
2:54 PM 64.4 °F - 46.4 °F 52% 29.60 in 10.0 mi South 11.5 mph - N/A   Clear
3:54 PM 64.9 °F - 45.0 °F 48% 29.61 in 10.0 mi South 10.4 mph - N/A   Overcast
4:54 PM 64.9 °F - 46.0 °F 50% 29.61 in 10.0 mi Variable 4.6 mph - N/A   Overcast
5:54 PM 64.0 °F - 46.9 °F 54% 29.61 in 10.0 mi Calm Calm - N/A   Overcast
6:54 PM 62.1 °F - 48.0 °F 60% 29.62 in 10.0 mi SW 4.6 mph - N/A   Overcast
7:54 PM 59.0 °F - 48.9 °F 69% 29.63 in 10.0 mi ESE 4.6 mph - N/A   Overcast
8:54 PM 64.0 °F - 42.1 °F 45% 29.62 in 10.0 mi SE 10.4 mph - N/A   Overcast
9:54 PM 61.0 °F - 44.1 °F 54% 29.61 in 10.0 mi Calm Calm - 0.00 in   Overcast
10:54 PM 59.0 °F - 46.0 °F 62% 29.62 in 10.0 mi SW 9.2 mph - N/A   Overcast
11:54 PM 57.9 °F - 45.0 °F 62% 29.61 in 10.0 mi WSW 8.1 mph - N/A   Overcast